Location: Mountain Grove
(34.0887°N, 86.6172°W)
Time: 22:07:05
(UTC+00:00)

Cosmos 1943 - Pass Details

Date: 14 July 2020
Orbit: 835 x 848 km, 71.0° (Epoch: 08 August)

Event Time Altitude Azimuth Distance (km) Brightness Sun altitude
Exits shadow 05:25:06 38° 311° (NW) 1,274 4.3 -33.9°
Drops below altitude 10° 05:29:46 10° 5° (N) 2,465 6.4 -34.0°
Sets 05:32:24 0° 13° (NNE) 3,401 7.3 -34.1°
